WX1N Weather Reports


Display with metric or nautical units.
time (UTC)temp
F
wind
direction
speed
MPH
gust
MPH
rain 1hr
in
rain 24hr
in
rain mn
in
humidity
%
barometer
mb
20260831232004 67 0 0.0 0.0 0.00 0.00 0.00 80 1016.7
20260831231505 68 0 0.0 0.0 0.00 0.00 0.00 80 1016.8
20260831231004 68 0 0.0 0.0 0.00 0.00 0.00 80 1016.8
20260831230503 68 0 0.0 0.0 0.00 0.00 0.00 80 1016.9
20260831230003 68 0 0.0 0.0 0.00 0.00 0.00 79 1017.0
20260831225503 68 0 0.0 0.0 0.00 0.00 0.00 78 1017.1
20260831225004 68 0 0.0 0.0 0.00 0.00 0.00 79 1017.1
20260831224503 68 0 0.0 0.0 0.00 0.00 0.00 77 1017.1
20260831224003 69 0 0.0 0.0 0.00 0.00 0.00 76 1017.1
20260831223503 69 0 0.0 0.0 0.00 0.00 0.00 76 1017.1
20260831223003 70 0 0.0 0.0 0.00 0.00 0.00 74 1017.0
20260831222503 71 0 0.0 0.0 0.00 0.00 0.00 72 1017.0
20260831222003 72 0 0.0 0.0 0.00 0.00 0.00 71 1017.0
20260831221503 73 0 0.0 0.0 0.00 0.00 0.00 73 1017.0
20260831221003 73 0 0.0 0.0 0.00 0.00 0.00 72 1017.0
20260831220503 74 0 0.0 0.0 0.00 0.00 0.00 68 1017.0
20260831220004 74 0 0.0 0.0 0.00 0.00 0.00 64 1016.8
20260831215503 74 0 0.0 0.0 0.00 0.00 0.00 62 1016.8
20260831215004 74 0 0.0 0.0 0.00 0.00 0.00 61 1016.9
20260831214503 75 0 0.0 0.0 0.00 0.00 0.00 66 1016.8
20260831214003 75 0 0.0 0.0 0.00 0.00 0.00 69 1016.8
20260831213503 75 0 0.0 0.0 0.00 0.00 0.00 66 1016.8
20260831213003 75 0 0.0 0.0 0.00 0.00 0.00 61 1016.8
20260831212503 75 0 0.0 0.0 0.00 0.00 0.00 63 1016.8
20260831212003 75 0 0.0 0.0 0.00 0.00 0.00 63 1016.8
20260831211503 75 0 0.0 0.0 0.00 0.00 0.00 67 1016.8
20260831211003 75 0 0.0 0.0 0.00 0.00 0.00 67 1016.7
20260831210503 76 0 0.0 0.0 0.00 0.00 0.00 69 1016.8
20260831210003 76 0 0.0 0.0 0.00 0.00 0.00 71 1016.9
20260831205503 76 0 0.0 0.0 0.00 0.00 0.00 66 1016.8
20260831205003 77 0 0.0 0.0 0.00 0.00 0.00 61 1016.8
20260831204503 77 0 0.0 0.0 0.00 0.00 0.00 57 1017.0
20260831204004 77 0 0.0 0.0 0.00 0.00 0.00 58 1017.0
20260831203503 77 0 0.0 0.0 0.00 0.00 0.00 58 1017.1
20260831203003 77 0 0.0 0.0 0.00 0.00 0.00 57 1017.2
20260831202503 78 0 0.0 0.0 0.00 0.00 0.00 57 1017.2
20260831202003 78 0 0.0 0.0 0.00 0.00 0.00 62 1017.2
20260831201503 78 0 0.0 0.0 0.00 0.00 0.00 59 1017.2
20260831201004 77 0 0.0 0.0 0.00 0.00 0.00 57 1017.2
20260831200504 77 0 0.0 0.0 0.00 0.00 0.00 60 1017.2
20260831200004 78 0 0.0 0.0 0.00 0.00 0.00 57 1017.3
20260831195503 78 0 0.0 0.0 0.00 0.00 0.00 55 1017.3
20260831195003 79 0 0.0 0.0 0.00 0.00 0.00 56 1017.3
20260831194503 80 0 0.0 0.0 0.00 0.00 0.00 56 1017.4
20260831194003 80 0 0.0 0.0 0.00 0.00 0.00 57 1017.5
20260831193503 81 0 0.0 0.0 0.00 0.00 0.00 54 1017.5
20260831193003 83 0 0.0 0.0 0.00 0.00 0.00 52 1017.5
20260831192503 84 0 0.0 0.0 0.00 0.00 0.00 49 1017.5
20260831192003 85 0 0.0 0.0 0.00 0.00 0.00 51 1017.5
20260831191503 85 0 0.0 0.0 0.00 0.00 0.00 49 1017.5
20260831191004 86 0 0.0 0.0 0.00 0.00 0.00 51 1017.6
20260831190503 86 0 0.0 0.0 0.00 0.00 0.00 50 1017.5
20260831190003 86 0 0.0 0.0 0.00 0.00 0.00 51 1017.6
20260831185503 86 0 0.0 0.0 0.00 0.00 0.00 49 1017.6
20260831185003 86 0 0.0 0.0 0.00 0.00 0.00 51 1017.6
20260831184503 85 0 0.0 0.0 0.00 0.00 0.00 52 1017.7
20260831184004 85 0 0.0 0.0 0.00 0.00 0.00 51 1017.7
20260831183503 84 0 0.0 0.0 0.00 0.00 0.00 49 1017.7
20260831183004 84 0 0.0 0.0 0.00 0.00 0.00 51 1017.9
20260831182504 84 0 0.0 0.0 0.00 0.00 0.00 49 1018.0
20260831182003 84 0 0.0 0.0 0.00 0.00 0.00 49 1018.1
20260831181503 83 0 0.0 0.0 0.00 0.00 0.00 54 1018.1
20260831181003 84 0 0.0 0.0 0.00 0.00 0.00 52 1018.2
20260831180503 84 0 0.0 0.0 0.00 0.00 0.00 50 1018.2
20260831180003 84 0 0.0 0.0 0.00 0.00 0.00 51 1018.4
20260831175503 83 0 0.0 0.0 0.00 0.00 0.00 50 1018.4
20260831175004 83 0 0.0 0.0 0.00 0.00 0.00 52 1018.4
20260831174504 83 0 0.0 0.0 0.00 0.00 0.00 50 1018.4
20260831174004 82 0 0.0 0.0 0.00 0.00 0.00 52 1018.5
20260831173503 81 0 0.0 0.0 0.00 0.00 0.00 57 1018.6
20260831173003 81 0 0.0 0.0 0.00 0.00 0.00 56 1018.7
20260831172503 81 0 0.0 0.0 0.00 0.00 0.00 54 1018.7
20260831172003 81 0 0.0 0.0 0.00 0.00 0.00 54 1018.8
20260831171503 81 0 0.0 0.0 0.00 0.00 0.00 54 1018.8
20260831171004 80 0 0.0 0.0 0.00 0.00 0.00 56 1018.8
20260831170504 80 0 0.0 0.0 0.00 0.00 0.00 58 1018.8
20260831170004 79 0 0.0 0.0 0.00 0.00 0.00 56 1018.9
20260831165504 79 0 0.0 0.0 0.00 0.00 0.00 51 1019.0
20260831165004 80 0 0.0 0.0 0.00 0.00 0.00 52 1019.1
20260831164504 79 0 0.0 0.0 0.00 0.00 0.00 50 1019.2
20260831164004 80 0 0.0 0.0 0.00 0.00 0.00 53 1019.2
20260831163503 79 0 0.0 0.0 0.00 0.00 0.00 52 1019.3
20260831163003 78 0 0.0 0.0 0.00 0.00 0.00 55 1019.3
20260831162503 78 0 0.0 0.0 0.00 0.00 0.00 61 1019.4
20260831162004 78 0 0.0 0.0 0.00 0.00 0.00 54 1019.5
20260831161503 77 0 0.0 0.0 0.00 0.00 0.00 58 1019.5
20260831161004 77 0 0.0 0.0 0.00 0.00 0.00 61 1019.5
20260831160504 76 0 0.0 0.0 0.00 0.00 0.00 59 1019.5
20260831160004 76 0 0.0 0.0 0.00 0.00 0.00 54 1019.6
20260831155504 76 0 0.0 0.0 0.00 0.00 0.00 59 1019.6
20260831155003 77 0 0.0 0.0 0.00 0.00 0.00 59 1019.8
20260831154503 77 0 0.0 0.0 0.00 0.00 0.00 62 1019.9
20260831154003 76 0 0.0 0.0 0.00 0.00 0.00 62 1019.9
20260831153503 76 0 0.0 0.0 0.00 0.00 0.00 64 1019.9
20260831153003 75 0 0.0 0.0 0.00 0.00 0.00 66 1019.9
20260831152503 74 0 0.0 0.0 0.00 0.00 0.00 66 1019.8
20260831152004 73 0 0.0 0.0 0.00 0.00 0.00 67 1019.8
20260831151504 73 0 0.0 0.0 0.00 0.00 0.00 73 1019.8
20260831151003 72 0 0.0 0.0 0.00 0.00 0.00 72 1019.8
20260831150503 71 0 0.0 0.0 0.00 0.00 0.00 70 1019.8
20260831150003 71 0 0.0 0.0 0.00 0.00 0.00 73 1019.8
20260831145503 70 0 0.0 0.0 0.00 0.00 0.00 76 1019.9
20260831145003 70 0 0.0 0.0 0.00 0.00 0.00 78 1019.8
20260831144503 70 0 0.0 0.0 0.00 0.00 0.00 80 1019.9
20260831144004 69 0 0.0 0.0 0.00 0.00 0.00 80 1020.0
20260831143504 68 0 0.0 0.0 0.00 0.00 0.00 79 1020.1
20260831143004 68 0 0.0 0.0 0.00 0.00 0.00 80 1020.1
20260831142503 68 0 0.0 0.0 0.00 0.00 0.00 80 1020.2
20260831142003 67 0 0.0 0.0 0.00 0.00 0.00 80 1020.2
20260831141503 67 0 0.0 0.0 0.00 0.00 0.00 80 1020.3
20260831141003 66 0 0.0 0.0 0.00 0.00 0.00 80 1020.2
20260831140503 66 0 0.0 0.0 0.00 0.00 0.00 78 1020.3
20260831140004 65 0 0.0 0.0 0.00 0.00 0.00 79 1020.3
20260831135504 65 0 0.0 0.0 0.00 0.00 0.00 79 1020.2
20260831135004 64 0 0.0 0.0 0.00 0.00 0.00 76 1020.3
20260831134504 64 0 0.0 0.0 0.00 0.00 0.00 76 1020.3
20260831134003 64 0 0.0 0.0 0.00 0.00 0.00 67 1020.2
20260831133503 63 0 0.0 0.0 0.00 0.00 0.00 56 1020.1
20260831133003 62 0 0.0 0.0 0.00 0.00 0.00 58 1020.1
20260831132503 62 0 0.0 0.0 0.00 0.00 0.00 58 1020.1
20260831132003 62 0 0.0 0.0 0.00 0.00 0.00 55 1020.0
20260831131504 62 0 0.0 0.0 0.00 0.00 0.00 50 1020.0
20260831131004 61 0 0.0 0.0 0.00 0.00 0.00 50 1020.1
20260831130504 61 0 0.0 0.0 0.00 0.00 0.00 51 1020.1
20260831130004 61 0 0.0 0.0 0.00 0.00 0.00 47 1020.1
20260831125504 61 0 0.0 0.0 0.00 0.00 0.00 46 1020.2
20260831125004 61 0 0.0 0.0 0.00 0.00 0.00 44 1020.1
20260831124503 60 0 0.0 0.0 0.00 0.00 0.00 43 1020.2
20260831124003 60 0 0.0 0.0 0.00 0.00 0.00 44 1020.1
20260831123503 60 0 0.0 0.0 0.00 0.00 0.00 44 1020.1
20260831123003 60 0 0.0 0.0 0.00 0.00 0.00 43 1020.1
20260831122504 60 0 0.0 0.0 0.00 0.00 0.00 43 1020.0
20260831122004 60 0 0.0 0.0 0.00 0.00 0.00 43 1020.0
20260831121504 60 0 0.0 0.0 0.00 0.00 0.00 43 1020.0
20260831121003 59 0 0.0 0.0 0.00 0.00 0.00 43 1020.0
20260831120503 59 0 0.0 0.0 0.00 0.00 0.00 44 1020.1
20260831120003 59 0 0.0 0.0 0.00 0.00 0.00 44 1020.1
20260831115503 59 0 0.0 0.0 0.00 0.00 0.00 44 1020.1
20260831115003 59 0 0.0 0.0 0.00 0.00 0.00 44 1020.1
20260831114504 59 0 0.0 0.0 0.00 0.00 0.00 44 1020.0
20260831114004 59 0 0.0 0.0 0.00 0.00 0.00 44 1019.9
20260831113504 59 0 0.0 0.0 0.00 0.00 0.00 44 1019.9
20260831113004 58 0 0.0 0.0 0.00 0.00 0.00 44 1019.8
20260831112503 58 0 0.0 0.0 0.00 0.00 0.00 44 1019.8
20260831112003 58 0 0.0 0.0 0.00 0.00 0.00 45 1019.8
20260831111503 58 0 0.0 0.0 0.00 0.00 0.00 45 1019.7
20260831111003 58 0 0.0 0.0 0.00 0.00 0.00 45 1019.7
20260831110503 57 0 0.0 0.0 0.00 0.00 0.00 46 1019.7
20260831110004 56 0 0.0 0.0 0.00 0.00 0.00 46 1019.6
20260831105504 56 0 0.0 0.0 0.00 0.00 0.00 46 1019.6
20260831105004 56 0 0.0 0.0 0.00 0.00 0.00 46 1019.5
20260831104504 56 0 0.0 0.0 0.00 0.00 0.00 46 1019.4
20260831104004 56 0 0.0 0.0 0.00 0.00 0.00 47 1019.5
20260831103503 56 0 0.0 0.0 0.00 0.00 0.00 47 1019.5
20260831103003 56 0 0.0 0.0 0.00 0.00 0.00 47 1019.5
20260831102503 56 0 0.0 0.0 0.00 0.00 0.00 47 1019.5
20260831102003 56 0 0.0 0.0 0.00 0.00 0.00 47 1019.4
20260831101504 56 0 0.0 0.0 0.00 0.00 0.00 47 1019.4
20260831101004 56 0 0.0 0.0 0.00 0.00 0.00 47 1019.4
20260831100504 55 0 0.0 0.0 0.00 0.00 0.00 47 1019.4
20260831100004 55 0 0.0 0.0 0.00 0.00 0.00 47 1019.4
20260831095503 55 0 0.0 0.0 0.00 0.00 0.00 48 1019.4
20260831095003 55 0 0.0 0.0 0.00 0.00 0.00 48 1019.3
20260831094503 55 0 0.0 0.0 0.00 0.00 0.00 48 1019.2
20260831094003 54 0 0.0 0.0 0.00 0.00 0.00 49 1019.3
20260831093503 54 0 0.0 0.0 0.00 0.00 0.00 49 1019.2
20260831093003 54 0 0.0 0.0 0.00 0.00 0.00 50 1019.2
20260831092504 54 0 0.0 0.0 0.00 0.00 0.00 50 1019.2
20260831092004 54 0 0.0 0.0 0.00 0.00 0.00 50 1019.1
20260831091504 54 0 0.0 0.0 0.00 0.00 0.00 50 1019.1
20260831091003 54 0 0.0 0.0 0.00 0.00 0.00 50 1019.0
20260831090503 54 0 0.0 0.0 0.00 0.00 0.00 50 1019.0
20260831090003 54 0 0.0 0.0 0.00 0.00 0.00 51 1019.0
20260831085503 54 0 0.0 0.0 0.00 0.00 0.00 50 1018.9
20260831085004 54 0 0.0 0.0 0.00 0.00 0.00 51 1018.9
20260831084504 55 0 0.0 0.0 0.00 0.00 0.00 50 1018.8
20260831084004 55 0 0.0 0.0 0.00 0.00 0.00 49 1018.8
20260831083504 55 0 0.0 0.0 0.00 0.00 0.00 49 1018.7
20260831083004 55 0 0.0 0.0 0.00 0.00 0.00 49 1018.7
20260831082504 55 0 0.0 0.0 0.00 0.00 0.00 50 1018.6
20260831082004 55 0 0.0 0.0 0.00 0.00 0.00 50 1018.6
20260831081503 55 0 0.0 0.0 0.00 0.00 0.00 51 1018.6
20260831081003 55 0 0.0 0.0 0.00 0.00 0.00 51 1018.6
20260831080503 55 0 0.0 0.0 0.00 0.00 0.00 53 1018.5
20260831080007 56 0 0.0 0.0 0.00 0.00 0.00 53 1018.6
20260831075504 56 0 0.0 0.0 0.00 0.00 0.00 52 1018.6
20260831075003 56 0 0.0 0.0 0.00 0.00 0.00 50 1018.4
20260831074503 57 0 0.0 0.0 0.00 0.00 0.00 50 1018.4
20260831074003 57 0 0.0 0.0 0.00 0.00 0.00 49 1018.4
20260831073503 57 0 0.0 0.0 0.00 0.00 0.00 49 1018.3
20260831073003 57 0 0.0 0.0 0.00 0.00 0.00 50 1018.2
20260831072503 57 0 0.0 0.0 0.00 0.00 0.00 50 1018.2
20260831072004 57 0 0.0 0.0 0.00 0.00 0.00 50 1018.2
20260831071504 57 0 0.0 0.0 0.00 0.00 0.00 51 1018.1
20260831071004 57 0 0.0 0.0 0.00 0.00 0.00 51 1018.0
20260831070504 57 0 0.0 0.0 0.00 0.00 0.00 52 1018.0
20260831070004 58 0 0.0 0.0 0.00 0.00 0.00 52 1018.1
20260831065503 58 0 0.0 0.0 0.00 0.00 0.00 51 1018.0
20260831065003 58 0 0.0 0.0 0.00 0.00 0.00 51 1018.0
20260831064503 58 0 0.0 0.0 0.00 0.00 0.00 51 1018.0
20260831064004 58 0 0.0 0.0 0.00 0.00 0.00 51 1018.0
20260831063504 58 0 0.0 0.0 0.00 0.00 0.00 52 1018.0
20260831063004 58 0 0.0 0.0 0.00 0.00 0.00 52 1018.0
20260831062504 58 0 0.0 0.0 0.00 0.00 0.00 54 1018.0
20260831062003 58 0 0.0 0.0 0.00 0.00 0.00 54 1018.1
20260831061503 58 0 0.0 0.0 0.00 0.00 0.00 55 1018.2
20260831061003 59 0 0.0 0.0 0.00 0.00 0.00 54 1018.0
20260831060503 59 0 0.0 0.0 0.00 0.00 0.00 54 1018.1
20260831060003 59 0 0.0 0.0 0.00 0.00 0.00 56 1018.0
20260831055503 59 0 0.0 0.0 0.00 0.00 0.00 59 1018.1
20260831055004 59 0 0.0 0.0 0.00 0.00 0.00 60 1018.0
20260831054504 59 0 0.0 0.0 0.00 0.00 0.00 63 1018.0
20260831054004 60 0 0.0 0.0 0.00 0.00 0.00 63 1018.0
20260831053503 60 0 0.0 0.0 0.00 0.00 0.00 61 1017.9
20260831053003 61 0 0.0 0.0 0.00 0.00 0.00 59 1017.9
20260831052503 61 0 0.0 0.0 0.00 0.00 0.00 56 1017.9
20260831052003 61 0 0.0 0.0 0.00 0.00 0.00 55 1017.9
20260831051503 61 0 0.0 0.0 0.00 0.00 0.00 55 1017.9
20260831051003 61 0 0.0 0.0 0.00 0.00 0.00 54 1017.9
20260831050504 61 0 0.0 0.0 0.00 0.00 0.00 54 1017.9
20260831050004 61 0 0.0 0.0 0.00 0.00 0.00 55 1017.8
20260831045504 61 0 0.0 0.0 0.00 0.00 0.00 57 1017.7
20260831045004 61 0 0.0 0.0 0.00 0.00 0.00 57 1017.6
20260831044504 61 0 0.0 0.0 0.00 0.00 0.00 58 1017.5
20260831044003 62 0 0.0 0.0 0.00 0.00 0.00 58 1017.5
20260831043503 62 0 0.0 0.0 0.00 0.00 0.00 58 1017.5
20260831043003 62 0 0.0 0.0 0.00 0.00 0.00 59 1017.4
20260831042504 62 0 0.0 0.0 0.00 0.00 0.00 60 1017.4
20260831042004 62 0 0.0 0.0 0.00 0.00 0.00 61 1017.5
20260831041503 62 0 0.0 0.0 0.00 0.00 0.00 63 1017.4
20260831041003 62 0 0.0 0.0 0.00 0.00 0.00 66 1017.3
20260831040503 62 0 0.0 0.0 0.00 0.00 0.00 68 1017.3
20260831040003 62 0 0.0 0.0 0.00 0.00 0.00 68 1017.2
20260831035503 62 0 0.0 0.0 0.00 0.00 0.00 67 1017.2
20260831035003 62 0 0.0 0.0 0.00 0.00 0.00 67 1017.2
20260831034503 63 0 0.0 0.0 0.00 0.00 0.00 68 1017.3
20260831034003 63 0 0.0 0.0 0.00 0.00 0.00 67 1017.3
20260831033503 63 0 0.0 0.0 0.00 0.00 0.00 68 1017.4
20260831033003 63 0 0.0 0.0 0.00 0.00 0.00 69 1017.3
20260831032502 63 0 0.0 0.0 0.00 0.00 0.00 71 1017.4
20260831032002 63 0 0.0 0.0 0.00 0.00 0.00 72 1017.4
20260831031502 63 0 0.0 0.0 0.00 0.00 0.00 74 1017.3
20260831031003 63 0 0.0 0.0 0.00 0.00 0.00 75 1017.4
20260831030503 64 0 0.0 0.0 0.00 0.00 0.00 76 1017.3
20260831030003 64 0 0.0 0.0 0.00 0.00 0.00 78 1017.3
20260831025503 64 0 0.0 0.0 0.00 0.00 0.00 79 1017.3
20260831025003 64 0 0.0 0.0 0.00 0.00 0.00 79 1017.4
20260831024503 65 0 0.0 0.0 0.00 0.00 0.00 79 1017.3
20260831024003 65 0 0.0 0.0 0.00 0.00 0.00 79 1017.2
20260831023503 65 0 0.0 0.0 0.00 0.00 0.00 80 1017.1
20260831023002 66 0 0.0 0.0 0.00 0.00 0.00 80 1017.1
20260831022502 66 0 0.0 0.0 0.00 0.00 0.00 80 1017.2
20260831022002 66 0 0.0 0.0 0.00 0.00 0.00 81 1017.0
20260831021502 66 0 0.0 0.0 0.00 0.00 0.00 81 1016.9
20260831021003 66 0 0.0 0.0 0.00 0.00 0.00 81 1016.9
20260831020502 66 0 0.0 0.0 0.00 0.00 0.00 81 1016.9
20260831020003 66 0 0.0 0.0 0.00 0.00 0.00 80 1017.0
20260831015503 66 0 0.0 0.0 0.00 0.00 0.00 80 1016.9
20260831015003 66 0 0.0 0.0 0.00 0.00 0.00 80 1016.9
20260831014503 66 0 0.0 0.0 0.00 0.00 0.00 79 1016.6
20260831014002 66 0 0.0 0.0 0.00 0.00 0.00 79 1016.7
20260831013502 67 0 0.0 0.0 0.00 0.00 0.00 78 1016.7
20260831013002 67 0 0.0 0.0 0.00 0.00 0.00 79 1016.7
20260831012503 67 0 0.0 0.0 0.00 0.00 0.00 80 1016.6
20260831012018 67 0 0.0 0.0 0.00 0.00 0.00 81 1016.5
20260831011503 67 0 0.0 0.0 0.00 0.00 0.00 81 1016.5
20260831011003 67 0 0.0 0.0 0.00 0.00 0.00 81 1016.5
20260831010502 68 0 0.0 0.0 0.00 0.00 0.00 81 1016.4
20260831010002 68 0 0.0 0.0 0.00 0.00 0.00 81 1016.5
20260831005502 68 0 0.0 0.0 0.00 0.00 0.00 82 1016.4
20260831005002 68 0 0.0 0.0 0.00 0.00 0.00 82 1016.3
20260831004502 68 0 0.0 0.0 0.00 0.00 0.00 82 1016.3
20260831004002 68 0 0.0 0.0 0.00 0.00 0.00 81 1016.2
20260831003503 69 0 0.0 0.0 0.00 0.00 0.00 81 1016.0
20260831003003 69 0 0.0 0.0 0.00 0.00 0.00 81 1016.0
20260831002503 68 0 0.0 0.0 0.00 0.00 0.00 81 1015.8
20260831002003 68 0 0.0 0.0 0.00 0.00 0.00 81 1015.6
20260831001503 68 0 0.0 0.0 0.00 0.00 0.00 81 1015.7
20260831001003 68 0 0.0 0.0 0.00 0.00 0.00 81 1015.7
20260831000502 68 0 0.0 0.0 0.00 0.00 0.00 81 1015.6
20260831000002 68 0 0.0 0.0 0.00 0.00 0.00 81 1015.6
20260830235502 68 0 0.0 0.0 0.00 0.00 0.00 81 1015.5
20260830235002 68 0 0.0 0.0 0.00 0.00 0.00 81 1015.4
20260830234502 68 0 0.0 0.0 0.00 0.00 0.00 82 1015.3
20260830234002 68 0 0.0 0.0 0.00 0.00 0.00 81 1015.3
20260830233503 68 0 0.0 0.0 0.00 0.00 0.00 82 1015.2
20260830233003 68 0 0.0 0.0 0.00 0.00 0.00 82 1015.1
20260830232503 69 0 0.0 0.0 0.00 0.00 0.00 82 1015.1